Regional Weather Roundup
Issued by NWS

Home | Current Version | Previous Version | Text Only | Print | Product List | Glossary Off
Versions: 1 2 3 4 5 6 7 8 9 10 11 12 13 14 15 16 17 18 19 20 21 22 23 24 25 26 27 28 29 30 31 32 33 34 35 36 37 38 39 40 41 42 43 44 45 46 47 48 49 50

000
ASUS43 KMPX 241001
RWRMN
WEATHER ROUNDUP FOR MINNESOTA
NATIONAL WEATHER SERVICE TWIN CITIES/CHANHASSEN MN
500 AM CDT WED AUG 24 2016


NOTE: "FAIR" INDICATES FEW OR NO CLOUDS BELOW 12,000 FEET WITH NO
SIGNIFICANT WEATHER AND/OR OBSTRUCTIONS TO VISIBILITY. N/A MEANS
CURRENT SKY AND/OR WEATHER CONDITIONS ARE NOT AVAILABLE.

MNZ060>063-068>070-241100-
   Twin Cities Metro

CITY           SKY/WX    TMP DP  RH WIND       PRES   REMARKS
TWIN CITIES    CLOUDY    69  66  90 SW7       29.81S
ST PAUL        CLOUDY    68  66  93 W3        29.81S
CRYSTAL        CLOUDY    67  64  90 SW5       29.80S
BLAINE         CLOUDY    70  70 100 W3        29.81S
LAKEVILLE      CLOUDY    66  66 100 CALM      29.81F
EDEN PRAIRIE   CLOUDY    68  65  90 W5        29.81S
LAKEVILLE      CLOUDY    66  66 100 CALM      29.81F
SOUTH ST PAUL  MOCLDY    68  67  98 SW5       29.80F
LAKE ELMO      CLOUDY    68  68 100 SW7       29.82S
$$
MNZ001>005-007-008-013>017-022>024-027-028-241100-
   Northwest Minnesota

CITY           SKY/WX    TMP DP  RH WIND       PRES   REMARKS
BEMIDJI        CLOUDY    68  62  81 W9        29.81R
HALLOCK        PTCLDY    54  52  94 SW3       29.77R
ROSEAU         PTCLDY    66  61  82 SW6       29.76S
WARROAD        CLEAR     64  61  88 W8        29.77R
THIEF RVR FALL CLEAR     56  53  90 SW7       29.82R
CROOKSTON      CLEAR     57  54  88 W5        29.81F
FOSSTON        CLOUDY    57  54  88 CALM      29.84R
DETROIT LAKES  CLOUDY    64  54  68 NW5       29.86R
MOORHEAD       CLEAR     61  52  72 NW3       29.85S
PARK RAPIDS    CLOUDY    69  65  86 NW8       29.82S
MAHNOMEN       CLOUDY    63  56  79 W6        29.84R
$$
MNZ006-009>011-018-025>026-241100-
   North Central Minnesota

CITY           SKY/WX    TMP DP  RH WIND       PRES   REMARKS
BAUDETTE       CLOUDY    69  66  90 W8        29.75R
FLAG ISLAND    PTCLDY    70  64  83 SW3       29.72R
INTL FALLS     CLOUDY    71  65  81 VRB3      29.75F
WASKISH        CLOUDY    70  68  94 W10       29.78R
BIG FORK       CLOUDY    66  64  94 S5        29.80S
LONGVILLE      CLOUDY    64  64 100 CALM      29.81S
GRAND RAPIDS   CLOUDY    64  63  96 S5        29.83S
CRANE LAKE     CLEAR     63  63 100 S1        29.81F
ORR            CLEAR     63  61  94 CALM      29.78F
COOK           CLEAR     63  63 100 CALM      29.82S
WALKER         FAIR      65  65  97 SW6       29.80F
$$
MNZ012-019>021-037-241100-
   Northeast Minnesota

CITY           SKY/WX    TMP DP  RH WIND       PRES   REMARKS
DULUTH         CLOUDY    67  63  87 SW5       29.83S
ELY            CLOUDY    63  61  94 S3        29.82F
HIBBING        MOCLDY    60  60 100 CALM      29.82F FOG
EVELETH        CLOUDY    58  57  97 CALM      29.83F FOG
DULUTH HARBOR  CLOUDY    70  64  83 W5        29.81F
TWO HARBORS    CLOUDY    63  57  82 CALM      29.81R
SILVER BAY     CLOUDY    57  57 100 CALM      29.81S
GRAND MARAIS     N/A     62  61  96 N3        29.82S
G MARAIS ARPRT CLOUDY    57  55  94 CALM      29.87S FOG
$$
MNZ029>031-032-039>041-046>048-054>057-064-241100-
   West Central Minnesota

CITY           SKY/WX    TMP DP  RH WIND       PRES   REMARKS
FERGUS FALLS   MOCLDY    64  64 100 NW6       29.86R
WHEATON        CLEAR     63  55  77 W6        29.87S
MORRIS         PTCLDY    64  61  88 NW7       29.84R
ALEXANDRIA     CLOUDY    68  66  93 NW7       29.85S
ELBOW LAKE     CLOUDY    66  64  95 NW8       29.86R
WADENA         CLOUDY    66  64  94 W3        29.83S
GLENWOOD       CLOUDY    66  66 100 W7        29.85R FOG
APPLETON       PTCLDY    66  57  72 NW6       29.84R
BENSON         CLOUDY    66  64  94 NW3       29.84R
ORTONVILLE     CLEAR     64  52  63 NW7       29.86R
MADISON        CLEAR     63  54  72 NW7       29.86R
WILLMAR        CLOUDY    68  66  94 CALM      29.85R FOG
$$
MNZ033>034-036-042>043-049>051-058-059-241100-
   Central Minnesota

CITY           SKY/WX    TMP DP  RH WIND       PRES   REMARKS
ST CLOUD       CLOUDY    67  67 100 SW3       29.82S
SAUK CENTRE    CLOUDY    66  65  97 SW3       29.84R
PAYNESVILLE    CLOUDY    66  67 100 CALM      29.84S
AITKIN         CLOUDY    70  63  78 SW3       29.81S
PINE RIVER     CLOUDY    64  64 100 CALM      29.86S
BRAINERD       CLOUDY    66  65  96 S3        29.82F
STAPLES        CLOUDY    64  64 100 CALM      29.82F FOG
LONG PRAIRIE   CLOUDY    64  64 100 CALM      29.84R FOG
LITTLE FALLS   CLOUDY    64  63  94 CALM      29.84S FOG
LITCHFIELD     CLOUDY    68  66  94 CALM      29.83S
BUFFALO        CLOUDY    66  64  93 CALM      29.83S
MAPLE LAKE     CLOUDY    67  67  97 CALM      29.84S
HUTCHINSON     CLOUDY    67  67  99 CALM      29.84S FOG
$$
MNZ037-044-045-052-053-241100-
   East Central Minnesota

CITY           SKY/WX    TMP DP  RH WIND       PRES   REMARKS
PRINCETON      CLOUDY    68  66  94 CALM      29.82S
MORA           CLOUDY    64  63  94 CALM      29.84S
CAMBRIDGE      CLOUDY    68  63  83 CALM      29.80S
RUSH CITY      RAIN      66  65  95 CALM      29.82S
MOOSE LAKE     DRIZZLE   66  63  88 CALM      29.81S
HINCKLEY       CLOUDY    66  66 100 CALM      29.82S
CLOQUET        CLOUDY    66  61  82 S3        29.83R
MCGREGOR       MOCLDY    63  61  94 CALM      29.83S
$$
MNZ071>073-080-081-089-090-097-098-241100-
   Southwest Minnesota

CITY           SKY/WX    TMP DP  RH WIND       PRES   REMARKS
MONTEVIDEO     CLOUDY    66  66 100 N9        29.86R
GRANITE FALLS  MOCLDY    68  66  94 W7        29.86R
CANBY          CLEAR     64  53  66 NW9       29.88R
MARSHALL       PTCLDY    66  57  72 NW13      29.86R
REDWOOD FALLS  PTCLDY    66  64  93 W5        29.83S
OLIVIA         CLOUDY    68  64  88 W3        29.82F
WINDOM         CLOUDY    70  68  94 W6        29.85S FOG
WORTHINGTON    CLOUDY    71  69  93 NW10      29.87R
JACKSON        CLOUDY    68  63  83 SW5       29.86R
TRACY          PTCLDY    67  65  90 NW8       29.85S
$$
MNZ065>067-074>077-082>085-091>093-241100-
   South Central Minnesota

CITY           SKY/WX    TMP DP  RH WIND       PRES   REMARKS
MANKATO        CLOUDY    70  66  88 SW3       29.82S
NEW ULM          N/A     66  66 100 CALM      29.82F
ST JAMES       CLOUDY    63  63 100 CALM      29.84S FOG
FAIRMONT         N/A    N/A N/A N/A MISG        N/A
GLENCOE        CLOUDY    67  67 100 CALM      29.82S
FARIBAULT      CLOUDY    68  66  94 S3        29.82F
OWATONNA       CLOUDY    70  66  88 S6        29.83S
WASECA         CLOUDY    70  68  94 S3        29.84F FOG
ALBERT LEA     CLOUDY    72  70  94 S6        29.83  FOG
$$
MNZ078>079-086>088-094>096-241100-
   Southeast Minnesota

CITY           SKY/WX    TMP DP  RH WIND       PRES   REMARKS
ROCHESTER      CLOUDY    67  66  97 S9        29.83F
RED WING       CLOUDY    70  66  88 CALM      29.80F
STANTON        CLOUDY    68  66  94 SW3       29.80F
DODGE CENTER   CLOUDY    70  66  88 SW8       29.83F
WINONA         MOCLDY    68  64  88 CALM      29.82F
AUSTIN         CLOUDY    70  66  88 S7        29.83F
PRESTON        CLOUDY    64  63  94 S6        29.85F
$$
ABBREVIATIONS USED IN REMARKS
   TC - TEMPERATURES IN CELSIUS
  WCI - WIND CHILL INDEX
   HX - HEAT INDEX
  VSB - VISIBILITY
$$




USA.gov is the U.S. government's official web portal to all federal, state and local government web resources and services.